Time,TemperatureF,DewpointF,PressureIn,WindDirection,WindDirectionDegrees,WindSpeedMPH,WindSpeedGustMPH,Humidity,HourlyPrecipIn,Conditions,Clouds,dailyrainin,SoftwareType,DateUTC
2013-07-17 00:00:00,56.3,56.0,30.27,West,270,6.0,6.0,100,0.00,,,0.00,Rainwise IP-100,2013-07-17 07:00:00,
2013-07-17 00:05:00,56.3,56.0,30.27,SW,225,4.0,6.0,100,0.00,,,0.00,Rainwise IP-100,2013-07-17 07:05:00,
2013-07-17 00:10:00,56.3,56.0,30.28,WSW,247,4.0,5.0,100,0.00,,,0.00,Rainwise IP-100,2013-07-17 07:10:00,
2013-07-17 00:15:00,56.3,56.0,30.28,WSW,247,2.0,7.0,100,0.00,,,0.00,Rainwise IP-100,2013-07-17 07:15:00,
2013-07-17 00:20:00,56.2,56.0,30.28,WNW,292,3.0,7.0,100,0.00,,,0.00,Rainwise IP-100,2013-07-17 07:20:00,
2013-07-17 00:25:00,56.3,56.0,30.27,WSW,247,5.0,9.0,100,0.00,,,0.00,Rainwise IP-100,2013-07-17 07:25:00,
2013-07-17 00:30:00,56.3,56.0,30.27,West,270,2.0,7.0,100,0.00,,,0.00,Rainwise IP-100,2013-07-17 07:30:00,
2013-07-17 00:35:00,56.2,56.0,30.28,East,90,0.0,5.0,100,0.00,,,0.00,Rainwise IP-100,2013-07-17 07:35:00,
2013-07-17 00:40:00,56.2,56.0,30.28,SSW,202,2.0,6.0,100,0.00,,,0.00,Rainwise IP-100,2013-07-17 07:40:00,
2013-07-17 00:45:00,56.3,56.0,30.28,South,180,1.0,6.0,100,0.00,,,0.00,Rainwise IP-100,2013-07-17 07:45:00,
2013-07-17 00:50:00,56.3,56.0,30.28,South,180,2.0,8.0,100,0.00,,,0.00,Rainwise IP-100,2013-07-17 07:50:00,
2013-07-17 00:55:00,56.3,56.0,30.28,WSW,247,4.0,7.0,100,0.00,,,0.00,Rainwise IP-100,2013-07-17 07:55:00,
2013-07-17 01:00:00,56.3,56.0,30.28,SSW,202,4.0,9.0,99,0.00,,,0.00,Rainwise IP-100,2013-07-17 08:00:00,
2013-07-17 01:05:00,56.2,56.0,30.28,SSW,202,4.0,7.0,99,0.00,,,0.00,Rainwise IP-100,2013-07-17 08:05:00,
2013-07-17 01:10:00,56.2,56.0,30.27,ESE,112,0.0,8.0,99,0.00,,,0.00,Rainwise IP-100,2013-07-17 08:10:00,
2013-07-17 01:15:00,56.3,56.0,30.28,SW,225,4.0,6.0,99,0.00,,,0.00,Rainwise IP-100,2013-07-17 08:15:00,
2013-07-17 01:20:00,56.3,56.0,30.27,WSW,247,7.0,7.0,99,0.00,,,0.00,Rainwise IP-100,2013-07-17 08:20:00,
2013-07-17 01:25:00,56.3,56.0,30.28,SW,225,4.0,8.0,99,0.00,,,0.00,Rainwise IP-100,2013-07-17 08:25:00,
2013-07-17 01:30:00,56.3,56.0,30.28,SW,225,1.0,6.0,99,0.00,,,0.00,Rainwise IP-100,2013-07-17 08:30:00,
2013-07-17 01:35:00,56.3,56.0,30.28,WSW,247,5.0,5.0,99,0.00,,,0.00,Rainwise IP-100,2013-07-17 08:35:00,
2013-07-17 01:40:00,56.3,56.0,30.29,SSE,157,0.0,5.0,99,0.00,,,0.00,Rainwise IP-100,2013-07-17 08:40:00,
2013-07-17 01:45:00,56.3,56.0,30.28,SSE,157,2.0,3.0,99,0.00,,,0.00,Rainwise IP-100,2013-07-17 08:45:00,
2013-07-17 01:50:00,56.3,56.0,30.28,WSW,247,4.0,8.0,99,0.00,,,0.00,Rainwise IP-100,2013-07-17 08:50:00,
2013-07-17 01:55:00,56.3,56.0,30.28,SW,225,0.0,6.0,99,0.00,,,0.00,Rainwise IP-100,2013-07-17 08:55:00,
2013-07-17 02:00:00,56.3,56.0,30.28,SW,225,4.0,8.0,99,0.00,,,0.00,Rainwise IP-100,2013-07-17 09:00:00,
2013-07-17 02:05:00,56.3,56.0,30.28,WSW,247,3.0,7.0,99,0.00,,,0.00,Rainwise IP-100,2013-07-17 09:05:00,
2013-07-17 02:10:00,56.3,56.0,30.28,SW,225,2.0,7.0,99,0.00,,,0.00,Rainwise IP-100,2013-07-17 09:10:00,
2013-07-17 02:15:00,56.3,56.0,30.28,SSE,157,3.0,6.0,99,0.00,,,0.00,Rainwise IP-100,2013-07-17 09:15:00,
2013-07-17 02:20:00,56.3,56.0,30.28,West,270,4.0,9.0,99,0.00,,,0.00,Rainwise IP-100,2013-07-17 09:20:00,
2013-07-17 02:25:00,56.3,56.0,30.28,WNW,292,1.0,9.0,99,0.00,,,0.00,Rainwise IP-100,2013-07-17 09:25:00,
2013-07-17 02:30:00,56.3,56.0,30.28,SW,225,3.0,8.0,99,0.00,,,0.00,Rainwise IP-100,2013-07-17 09:30:00,
2013-07-17 02:35:00,56.3,56.0,30.28,WNW,292,4.0,5.0,99,0.00,,,0.00,Rainwise IP-100,2013-07-17 09:35:00,
2013-07-17 02:40:00,56.3,56.0,30.28,SW,225,3.0,8.0,99,0.00,,,0.00,Rainwise IP-100,2013-07-17 09:40:00,
2013-07-17 02:45:00,56.3,56.0,30.28,SSW,202,6.0,8.0,99,0.00,,,0.00,Rainwise IP-100,2013-07-17 09:45:00,
2013-07-17 02:50:00,56.3,56.0,30.28,SW,225,2.0,8.0,99,0.00,,,0.00,Rainwise IP-100,2013-07-17 09:50:00,
2013-07-17 02:55:00,56.3,56.0,30.28,West,270,4.0,8.0,99,0.00,,,0.00,Rainwise IP-100,2013-07-17 09:55:00,
2013-07-17 03:00:00,56.3,55.0,30.28,SW,225,0.0,6.0,98,0.00,,,0.00,Rainwise IP-100,2013-07-17 10:00:00,
2013-07-17 03:05:00,56.3,55.0,30.28,SW,225,0.0,6.0,98,0.00,,,0.00,Rainwise IP-100,2013-07-17 10:05:00,
2013-07-17 03:10:00,56.3,55.0,30.28,West,270,4.0,5.0,98,0.00,,,0.00,Rainwise IP-100,2013-07-17 10:10:00,
2013-07-17 03:15:00,56.3,55.0,30.28,SW,225,3.0,8.0,98,0.00,,,0.00,Rainwise IP-100,2013-07-17 10:15:00,
2013-07-17 03:20:00,56.2,55.0,30.27,WNW,292,4.0,8.0,98,0.00,,,0.00,Rainwise IP-100,2013-07-17 10:20:00,
2013-07-17 03:25:00,56.2,55.0,30.28,NNW,337,1.0,1.0,98,0.00,,,0.00,Rainwise IP-100,2013-07-17 10:25:00,
2013-07-17 03:30:00,56.2,55.0,30.28,SW,225,3.0,7.0,98,0.00,,,0.00,Rainwise IP-100,2013-07-17 10:30:00,
2013-07-17 03:35:00,56.2,55.0,30.28,WSW,247,4.0,8.0,98,0.00,,,0.00,Rainwise IP-100,2013-07-17 10:35:00,
2013-07-17 03:40:00,56.2,55.0,30.28,South,180,3.0,9.0,98,0.00,,,0.00,Rainwise IP-100,2013-07-17 10:40:00,
2013-07-17 03:45:00,56.2,55.0,30.27,SSW,202,2.0,9.0,98,0.00,,,0.00,Rainwise IP-100,2013-07-17 10:45:00,
2013-07-17 03:50:00,56.2,55.0,30.27,WNW,292,2.0,7.0,98,0.00,,,0.00,Rainwise IP-100,2013-07-17 10:50:00,
2013-07-17 03:55:00,56.2,55.0,30.27,WSW,247,2.0,8.0,97,0.00,,,0.00,Rainwise IP-100,2013-07-17 10:55:00,
2013-07-17 04:00:00,56.2,55.0,30.27,SW,225,4.0,0.0,97,0.00,,,0.00,Rainwise IP-100,2013-07-17 11:00:00,
2013-07-17 04:05:00,56.3,55.0,30.27,SW,225,4.0,8.0,97,0.00,,,0.00,Rainwise IP-100,2013-07-17 11:05:00,
2013-07-17 04:10:00,56.2,55.0,30.27,WSW,247,5.0,8.0,97,0.00,,,0.00,Rainwise IP-100,2013-07-17 11:10:00,
2013-07-17 04:15:00,56.2,55.0,30.27,West,270,7.0,8.0,97,0.00,,,0.00,Rainwise IP-100,2013-07-17 11:15:00,
2013-07-17 04:20:00,56.1,55.0,30.27,WSW,247,3.0,8.0,97,0.00,,,0.00,Rainwise IP-100,2013-07-17 11:20:00,
2013-07-17 04:25:00,56.0,55.0,30.27,WSW,247,4.0,4.0,97,0.00,,,0.00,Rainwise IP-100,2013-07-17 11:25:00,
2013-07-17 04:30:00,56.0,55.0,30.27,NNW,337,1.0,8.0,97,0.00,,,0.00,Rainwise IP-100,2013-07-17 11:30:00,
2013-07-17 04:35:00,56.1,55.0,30.28,SSW,202,0.0,8.0,97,0.00,,,0.00,Rainwise IP-100,2013-07-17 11:35:00,
2013-07-17 04:40:00,56.1,55.0,30.27,WSW,247,2.0,9.0,97,0.00,,,0.00,Rainwise IP-100,2013-07-17 11:40:00,
2013-07-17 04:45:00,56.0,55.0,30.28,SW,225,4.0,6.0,97,0.00,,,0.00,Rainwise IP-100,2013-07-17 11:45:00,
2013-07-17 04:50:00,56.0,55.0,30.27,WNW,292,2.0,0.0,97,0.00,,,0.00,Rainwise IP-100,2013-07-17 11:50:00,
2013-07-17 04:55:00,56.0,55.0,30.27,SSW,202,3.0,9.0,97,0.00,,,0.00,Rainwise IP-100,2013-07-17 11:55:00,
2013-07-17 05:00:00,56.0,54.0,30.28,SSE,157,3.0,7.0,96,0.00,,,0.00,Rainwise IP-100,2013-07-17 12:00:00,
2013-07-17 05:05:00,55.9,54.0,30.28,WNW,292,2.0,8.0,96,0.00,,,0.00,Rainwise IP-100,2013-07-17 12:05:00,
2013-07-17 05:10:00,55.9,54.0,30.28,South,180,0.0,9.0,96,0.00,,,0.00,Rainwise IP-100,2013-07-17 12:10:00,
2013-07-17 05:15:00,55.9,54.0,30.28,WSW,247,2.0,4.0,96,0.00,,,0.00,Rainwise IP-100,2013-07-17 12:15:00,
2013-07-17 05:20:00,56.0,54.0,30.29,WSW,247,5.0,9.0,96,0.00,,,0.00,Rainwise IP-100,2013-07-17 12:20:00,
2013-07-17 05:25:00,56.0,54.0,30.29,West,270,3.0,8.0,96,0.00,,,0.00,Rainwise IP-100,2013-07-17 12:25:00,
2013-07-17 05:30:00,55.9,54.0,30.28,West,270,3.0,7.0,96,0.00,,,0.00,Rainwise IP-100,2013-07-17 12:30:00,
2013-07-17 05:35:00,55.8,54.0,30.29,WNW,292,2.0,7.0,96,0.00,,,0.00,Rainwise IP-100,2013-07-17 12:35:00,
2013-07-17 05:40:00,55.8,54.0,30.29,WSW,247,2.0,7.0,96,0.00,,,0.00,Rainwise IP-100,2013-07-17 12:40:00,
2013-07-17 05:45:00,55.9,54.0,30.29,WSW,247,3.0,4.0,96,0.00,,,0.00,Rainwise IP-100,2013-07-17 12:45:00,
2013-07-17 05:50:00,55.9,54.0,30.29,SSW,202,0.0,4.0,96,0.00,,,0.00,Rainwise IP-100,2013-07-17 12:50:00,
2013-07-17 05:55:00,55.9,54.0,30.29,WNW,292,0.0,5.0,96,0.00,,,0.00,Rainwise IP-100,2013-07-17 12:55:00,
2013-07-17 06:00:00,55.9,54.0,30.29,WSW,247,3.0,5.0,96,0.00,,,0.00,Rainwise IP-100,2013-07-17 13:00:00,
2013-07-17 06:05:00,55.8,54.0,30.29,SW,225,3.0,5.0,96,0.00,,,0.00,Rainwise IP-100,2013-07-17 13:05:00,
2013-07-17 06:10:00,55.8,54.0,30.29,WNW,292,5.0,8.0,95,0.00,,,0.00,Rainwise IP-100,2013-07-17 13:10:00,
2013-07-17 06:15:00,55.9,54.0,30.30,ESE,112,0.0,8.0,95,0.00,,,0.00,Rainwise IP-100,2013-07-17 13:15:00,
2013-07-17 06:20:00,55.9,54.0,30.29,WSW,247,0.0,6.0,95,0.00,,,0.00,Rainwise IP-100,2013-07-17 13:20:00,
2013-07-17 06:25:00,55.9,54.0,30.30,WSW,247,3.0,4.0,95,0.00,,,0.00,Rainwise IP-100,2013-07-17 13:25:00,
2013-07-17 06:30:00,56.0,54.0,30.30,NNW,337,2.0,5.0,95,0.00,,,0.00,Rainwise IP-100,2013-07-17 13:30:00,
2013-07-17 06:35:00,55.9,54.0,30.30,WNW,292,3.0,7.0,95,0.00,,,0.00,Rainwise IP-100,2013-07-17 13:35:00,
2013-07-17 06:40:00,55.9,54.0,30.30,WSW,247,3.0,0.0,95,0.00,,,0.00,Rainwise IP-100,2013-07-17 13:40:00,
2013-07-17 06:45:00,56.0,54.0,30.30,West,270,0.0,9.0,95,0.00,,,0.00,Rainwise IP-100,2013-07-17 13:45:00,
2013-07-17 06:50:00,56.0,54.0,30.31,South,180,1.0,6.0,95,0.00,,,0.00,Rainwise IP-100,2013-07-17 13:50:00,
2013-07-17 06:55:00,55.9,54.0,30.30,West,270,4.0,6.0,95,0.00,,,0.00,Rainwise IP-100,2013-07-17 13:55:00,
2013-07-17 07:00:00,55.9,54.0,30.30,WNW,292,3.0,8.0,94,0.00,,,0.00,Rainwise IP-100,2013-07-17 14:00:00,
2013-07-17 07:05:00,56.0,54.0,30.31,NW,315,3.0,6.0,94,0.00,,,0.00,Rainwise IP-100,2013-07-17 14:05:00,
2013-07-17 07:10:00,56.1,54.0,30.31,NNE,22,0.0,9.0,94,0.00,,,0.00,Rainwise IP-100,2013-07-17 14:10:00,
2013-07-17 07:15:00,56.1,54.0,30.31,WSW,247,4.0,0.0,94,0.00,,,0.00,Rainwise IP-100,2013-07-17 14:15:00,
2013-07-17 07:20:00,56.1,54.0,30.31,WSW,247,2.0,6.0,94,0.00,,,0.00,Rainwise IP-100,2013-07-17 14:20:00,
2013-07-17 07:25:00,56.1,54.0,30.31,South,180,0.0,8.0,94,0.00,,,0.00,Rainwise IP-100,2013-07-17 14:25:00,
2013-07-17 07:30:00,56.1,54.0,30.31,WNW,292,4.0,7.0,94,0.00,,,0.00,Rainwise IP-100,2013-07-17 14:30:00,
2013-07-17 07:35:00,56.1,54.0,30.31,SSE,157,1.0,7.0,94,0.00,,,0.00,Rainwise IP-100,2013-07-17 14:35:00,
2013-07-17 07:40:00,56.1,54.0,30.32,West,270,4.0,8.0,94,0.00,,,0.00,Rainwise IP-100,2013-07-17 14:40:00,
2013-07-17 07:45:00,56.1,54.0,30.32,SSW,202,2.0,9.0,95,0.00,,,0.00,Rainwise IP-100,2013-07-17 14:45:00,
2013-07-17 07:50:00,56.1,54.0,30.32,SSW,202,0.0,0.0,95,0.00,,,0.00,Rainwise IP-100,2013-07-17 14:50:00,
2013-07-17 07:55:00,56.2,54.0,30.32,SSW,202,3.0,9.0,95,0.00,,,0.00,Rainwise IP-100,2013-07-17 14:55:00,
2013-07-17 08:00:00,56.2,54.0,30.32,SW,225,2.0,6.0,95,0.00,,,0.00,Rainwise IP-100,2013-07-17 15:00:00,
2013-07-17 08:05:00,56.2,54.0,30.32,WSW,247,7.0,7.0,95,0.00,,,0.00,Rainwise IP-100,2013-07-17 15:05:00,
2013-07-17 08:10:00,56.2,54.0,30.32,SE,135,1.0,7.0,95,0.00,,,0.00,Rainwise IP-100,2013-07-17 15:10:00,
2013-07-17 08:15:00,56.3,54.0,30.32,WSW,247,3.0,5.0,95,0.00,,,0.00,Rainwise IP-100,2013-07-17 15:15:00,
2013-07-17 08:20:00,56.3,54.0,30.33,WNW,292,2.0,6.0,95,0.00,,,0.00,Rainwise IP-100,2013-07-17 15:20:00,
2013-07-17 08:25:00,56.3,54.0,30.33,SSW,202,4.0,9.0,95,0.00,,,0.00,Rainwise IP-100,2013-07-17 15:25:00,
2013-07-17 08:30:00,56.3,54.0,30.33,WNW,292,4.0,4.0,95,0.00,,,0.00,Rainwise IP-100,2013-07-17 15:30:00,
2013-07-17 08:35:00,56.3,54.0,30.33,SSW,202,2.0,8.0,95,0.00,,,0.00,Rainwise IP-100,2013-07-17 15:35:00,
2013-07-17 08:40:00,56.3,54.0,30.33,WSW,247,2.0,8.0,95,0.00,,,0.00,Rainwise IP-100,2013-07-17 15:40:00,
2013-07-17 08:45:00,56.4,55.0,30.34,West,270,2.0,7.0,95,0.00,,,0.00,Rainwise IP-100,2013-07-17 15:45:00,
2013-07-17 08:50:00,56.5,55.0,30.33,WSW,247,1.0,8.0,95,0.00,,,0.00,Rainwise IP-100,2013-07-17 15:50:00,
2013-07-17 08:55:00,56.6,54.0,30.34,WNW,292,3.0,8.0,94,0.00,,,0.00,Rainwise IP-100,2013-07-17 15:55:00,
2013-07-17 09:00:00,56.7,54.0,30.34,WSW,247,0.0,8.0,94,0.00,,,0.00,Rainwise IP-100,2013-07-17 16:00:00,
2013-07-17 09:05:00,56.7,54.0,30.34,WSW,247,2.0,9.0,94,0.00,,,0.00,Rainwise IP-100,2013-07-17 16:05:00,
2013-07-17 09:10:00,56.7,54.0,30.34,West,270,6.0,0.0,94,0.00,,,0.00,Rainwise IP-100,2013-07-17 16:10:00,
2013-07-17 09:15:00,56.6,54.0,30.34,WNW,292,2.0,0.0,94,0.00,,,0.00,Rainwise IP-100,2013-07-17 16:15:00,
2013-07-17 09:20:00,56.7,54.0,30.34,WNW,292,5.0,8.0,94,0.00,,,0.00,Rainwise IP-100,2013-07-17 16:20:00,
2013-07-17 09:25:00,56.8,54.0,30.34,WNW,292,3.0,9.0,94,0.00,,,0.00,Rainwise IP-100,2013-07-17 16:25:00,
2013-07-17 09:30:00,56.8,54.0,30.34,SSE,157,4.0,9.0,93,0.00,,,0.00,Rainwise IP-100,2013-07-17 16:30:00,
2013-07-17 09:35:00,56.8,54.0,30.34,West,270,4.0,7.0,93,0.00,,,0.00,Rainwise IP-100,2013-07-17 16:35:00,
2013-07-17 09:40:00,56.7,54.0,30.35,WNW,292,2.0,2.0,93,0.00,,,0.00,Rainwise IP-100,2013-07-17 16:40:00,
2013-07-17 09:45:00,56.7,54.0,30.34,West,270,0.0,8.0,93,0.00,,,0.00,Rainwise IP-100,2013-07-17 16:45:00,
2013-07-17 09:50:00,56.7,54.0,30.34,NW,315,3.0,0.0,93,0.00,,,0.00,Rainwise IP-100,2013-07-17 16:50:00,
2013-07-17 09:55:00,56.7,54.0,30.34,WSW,247,3.0,8.0,93,0.00,,,0.00,Rainwise IP-100,2013-07-17 16:55:00,
2013-07-17 10:00:00,56.8,54.0,30.34,WNW,292,6.0,9.0,93,0.00,,,0.00,Rainwise IP-100,2013-07-17 17:00:00,
2013-07-17 10:05:00,56.8,54.0,30.34,SSE,157,4.0,9.0,93,0.00,,,0.00,Rainwise IP-100,2013-07-17 17:05:00,
2013-07-17 10:10:00,57.0,55.0,30.34,SSW,202,2.0,6.0,93,0.00,,,0.00,Rainwise IP-100,2013-07-17 17:10:00,
2013-07-17 10:15:00,57.2,54.0,30.34,WSW,247,3.0,9.0,92,0.00,,,0.00,Rainwise IP-100,2013-07-17 17:15:00,
2013-07-17 10:20:00,57.2,54.0,30.34,SSE,157,0.0,6.0,92,0.00,,,0.00,Rainwise IP-100,2013-07-17 17:20:00,
2013-07-17 10:25:00,57.3,54.0,30.35,WSW,247,3.0,8.0,91,0.00,,,0.00,Rainwise IP-100,2013-07-17 17:25:00,
2013-07-17 10:30:00,57.4,55.0,30.34,WSW,247,0.0,0.0,91,0.00,,,0.00,Rainwise IP-100,2013-07-17 17:30:00,
2013-07-17 10:35:00,57.3,54.0,30.35,WSW,247,4.0,8.0,91,0.00,,,0.00,Rainwise IP-100,2013-07-17 17:35:00,
2013-07-17 10:40:00,57.2,54.0,30.35,SSW,202,5.0,9.0,91,0.00,,,0.00,Rainwise IP-100,2013-07-17 17:40:00,
2013-07-17 10:45:00,57.1,54.0,30.35,SW,225,0.0,1.0,91,0.00,,,0.00,Rainwise IP-100,2013-07-17 17:45:00,
2013-07-17 10:50:00,57.0,54.0,30.34,SSW,202,5.0,5.0,92,0.00,,,0.00,Rainwise IP-100,2013-07-17 17:50:00,
2013-07-17 10:55:00,57.0,54.0,30.34,West,270,2.0,4.0,92,0.00,,,0.00,Rainwise IP-100,2013-07-17 17:55:00,
2013-07-17 11:00:00,57.2,54.0,30.35,ESE,112,3.0,0.0,91,0.00,,,0.00,Rainwise IP-100,2013-07-17 18:00:00,
2013-07-17 11:05:00,57.6,54.0,30.35,WSW,247,3.0,6.0,90,0.00,,,0.00,Rainwise IP-100,2013-07-17 18:05:00,
2013-07-17 11:10:00,57.9,55.0,30.35,WSW,247,6.0,9.0,90,0.00,,,0.00,Rainwise IP-100,2013-07-17 18:10:00,
2013-07-17 11:15:00,57.9,55.0,30.35,SE,135,1.0,7.0,89,0.00,,,0.00,Rainwise IP-100,2013-07-17 18:15:00,
2013-07-17 11:20:00,57.9,55.0,30.35,WNW,292,5.0,9.0,89,0.00,,,0.00,Rainwise IP-100,2013-07-17 18:20:00,
2013-07-17 11:25:00,57.9,55.0,30.35,North,360,1.0,8.0,90,0.00,,,0.00,Rainwise IP-100,2013-07-17 18:25:00,
2013-07-17 11:30:00,57.9,55.0,30.35,WNW,292,5.0,9.0,89,0.00,,,0.00,Rainwise IP-100,2013-07-17 18:30:00,
2013-07-17 11:35:00,57.9,55.0,30.36,WNW,292,2.0,0.0,89,0.00,,,0.00,Rainwise IP-100,2013-07-17 18:35:00,
2013-07-17 11:40:00,57.9,55.0,30.35,WSW,247,0.0,1.0,89,0.00,,,0.00,Rainwise IP-100,2013-07-17 18:40:00,
2013-07-17 11:45:00,58.1,55.0,30.35,WSW,247,4.0,4.0,89,0.00,,,0.00,Rainwise IP-100,2013-07-17 18:45:00,
2013-07-17 11:50:00,58.1,54.0,30.36,WSW,247,1.0,1.0,88,0.00,,,0.00,Rainwise IP-100,2013-07-17 18:50:00,
2013-07-17 11:55:00,58.0,54.0,30.35,West,270,9.0,9.0,88,0.00,,,0.00,Rainwise IP-100,2013-07-17 18:55:00,
2013-07-17 12:00:00,57.7,54.0,30.35,SE,135,4.0,4.0,89,0.00,,,0.00,Rainwise IP-100,2013-07-17 19:00:00,
2013-07-17 12:05:00,57.9,55.0,30.35,WSW,247,2.0,0.0,90,0.00,,,0.00,Rainwise IP-100,2013-07-17 19:05:00,
2013-07-17 12:10:00,58.4,55.0,30.35,WNW,292,2.0,9.0,89,0.00,,,0.00,Rainwise IP-100,2013-07-17 19:10:00,
2013-07-17 12:15:00,58.8,55.0,30.35,WSW,247,0.0,1.0,88,0.00,,,0.00,Rainwise IP-100,2013-07-17 19:15:00,
2013-07-17 12:20:00,58.8,55.0,30.35,WNW,292,3.0,4.0,88,0.00,,,0.00,Rainwise IP-100,2013-07-17 19:20:00,
2013-07-17 12:25:00,58.7,55.0,30.35,WSW,247,4.0,0.0,88,0.00,,,0.00,Rainwise IP-100,2013-07-17 19:25:00,
2013-07-17 12:30:00,58.9,55.0,30.35,SSE,157,3.0,3.0,87,0.00,,,0.00,Rainwise IP-100,2013-07-17 19:30:00,
2013-07-17 12:35:00,58.9,55.0,30.35,WSW,247,2.0,3.0,87,0.00,,,0.00,Rainwise IP-100,2013-07-17 19:35:00,
2013-07-17 12:40:00,59.0,55.0,30.35,West,270,7.0,7.0,88,0.00,,,0.00,Rainwise IP-100,2013-07-17 19:40:00,
2013-07-17 12:45:00,59.3,55.0,30.35,South,180,4.0,4.0,87,0.00,,,0.00,Rainwise IP-100,2013-07-17 19:45:00,
2013-07-17 12:50:00,59.3,55.0,30.35,West,270,3.0,3.0,87,0.00,,,0.00,Rainwise IP-100,2013-07-17 19:50:00,
2013-07-17 12:55:00,59.5,55.0,30.35,WSW,247,0.0,2.0,87,0.00,,,0.00,Rainwise IP-100,2013-07-17 19:55:00,
2013-07-17 13:00:00,59.5,55.0,30.35,SW,225,0.0,7.0,86,0.00,,,0.00,Rainwise IP-100,2013-07-17 20:00:00,
2013-07-17 13:05:00,59.4,55.0,30.34,SW,225,0.0,4.0,86,0.00,,,0.00,Rainwise IP-100,2013-07-17 20:05:00,
2013-07-17 13:10:00,59.5,55.0,30.35,WNW,292,2.0,7.0,87,0.00,,,0.00,Rainwise IP-100,2013-07-17 20:10:00,
2013-07-17 13:15:00,59.7,55.0,30.35,WSW,247,4.0,5.0,86,0.00,,,0.00,Rainwise IP-100,2013-07-17 20:15:00,
2013-07-17 13:20:00,59.9,56.0,30.35,SSE,157,8.0,8.0,86,0.00,,,0.00,Rainwise IP-100,2013-07-17 20:20:00,
2013-07-17 13:25:00,60.1,55.0,30.34,SSE,157,0.0,3.0,85,0.00,,,0.00,Rainwise IP-100,2013-07-17 20:25:00,
2013-07-17 13:30:00,60.5,56.0,30.34,WSW,247,8.0,8.0,84,0.00,,,0.00,Rainwise IP-100,2013-07-17 20:30:00,
2013-07-17 13:35:00,60.5,56.0,30.34,SW,225,0.0,8.0,84,0.00,,,0.00,Rainwise IP-100,2013-07-17 20:35:00,
2013-07-17 13:40:00,60.2,55.0,30.34,WNW,292,3.0,8.0,85,0.00,,,0.00,Rainwise IP-100,2013-07-17 20:40:00,
2013-07-17 13:45:00,60.5,56.0,30.34,SW,225,5.0,0.0,85,0.00,,,0.00,Rainwise IP-100,2013-07-17 20:45:00,
2013-07-17 13:50:00,60.7,56.0,30.34,SSW,202,0.0,5.0,84,0.00,,,0.00,Rainwise IP-100,2013-07-17 20:50:00,
2013-07-17 13:55:00,60.5,56.0,30.34,WSW,247,5.0,6.0,84,0.00,,,0.00,Rainwise IP-100,2013-07-17 20:55:00,
2013-07-17 14:00:00,60.5,56.0,30.34,West,270,6.0,6.0,84,0.00,,,0.00,Rainwise IP-100,2013-07-17 21:00:00,
2013-07-17 14:05:00,60.6,56.0,30.34,SW,225,8.0,8.0,84,0.00,,,0.00,Rainwise IP-100,2013-07-17 21:05:00,
2013-07-17 14:10:00,60.7,56.0,30.34,SE,135,8.0,8.0,84,0.00,,,0.00,Rainwise IP-100,2013-07-17 21:10:00,
2013-07-17 14:15:00,60.6,55.0,30.34,SW,225,6.0,7.0,83,0.00,,,0.00,Rainwise IP-100,2013-07-17 21:15:00,
2013-07-17 14:20:00,60.5,55.0,30.34,NW,315,4.0,5.0,83,0.00,,,0.00,Rainwise IP-100,2013-07-17 21:20:00,
2013-07-17 14:25:00,60.7,55.0,30.34,ESE,112,4.0,4.0,83,0.00,,,0.00,Rainwise IP-100,2013-07-17 21:25:00,
2013-07-17 14:30:00,61.0,56.0,30.34,WSW,247,4.0,4.0,83,0.00,,,0.00,Rainwise IP-100,2013-07-17 21:30:00,
2013-07-17 14:35:00,61.0,56.0,30.34,WNW,292,5.0,5.0,83,0.00,,,0.00,Rainwise IP-100,2013-07-17 21:35:00,
2013-07-17 14:40:00,61.1,56.0,30.34,WSW,247,3.0,3.0,83,0.00,,,0.00,Rainwise IP-100,2013-07-17 21:40:00,
2013-07-17 14:45:00,61.3,55.0,30.34,SE,135,3.0,3.0,82,0.00,,,0.00,Rainwise IP-100,2013-07-17 21:45:00,
2013-07-17 14:50:00,61.1,55.0,30.34,SW,225,0.0,3.0,82,0.00,,,0.00,Rainwise IP-100,2013-07-17 21:50:00,
2013-07-17 14:55:00,60.4,55.0,30.34,WSW,247,7.0,7.0,83,0.00,,,0.00,Rainwise IP-100,2013-07-17 21:55:00,
2013-07-17 15:00:00,60.1,55.0,30.34,WSW,247,9.0,9.0,84,0.00,,,0.00,Rainwise IP-100,2013-07-17 22:00:00,
2013-07-17 15:05:00,60.3,55.0,30.34,South,180,4.0,4.0,84,0.00,,,0.00,Rainwise IP-100,2013-07-17 22:05:00,
2013-07-17 15:10:00,60.6,55.0,30.34,SW,225,6.0,6.0,83,0.00,,,0.00,Rainwise IP-100,2013-07-17 22:10:00,
2013-07-17 15:15:00,60.7,55.0,30.33,WNW,292,2.0,2.0,83,0.00,,,0.00,Rainwise IP-100,2013-07-17 22:15:00,
2013-07-17 15:20:00,60.5,54.0,30.33,WSW,247,7.0,7.0,82,0.00,,,0.00,Rainwise IP-100,2013-07-17 22:20:00,
2013-07-17 15:25:00,60.3,54.0,30.33,SSW,202,4.0,4.0,83,0.00,,,0.00,Rainwise IP-100,2013-07-17 22:25:00,
2013-07-17 15:30:00,60.3,54.0,30.33,SSE,157,4.0,4.0,83,0.00,,,0.00,Rainwise IP-100,2013-07-17 22:30:00,
2013-07-17 15:35:00,60.4,54.0,30.33,NNW,337,0.0,1.0,82,0.00,,,0.00,Rainwise IP-100,2013-07-17 22:35:00,
2013-07-17 15:40:00,60.3,54.0,30.33,SW,225,4.0,4.0,82,0.00,,,0.00,Rainwise IP-100,2013-07-17 22:40:00,
2013-07-17 15:45:00,60.2,54.0,30.33,WNW,292,2.0,4.0,83,0.00,,,0.00,Rainwise IP-100,2013-07-17 22:45:00,
2013-07-17 15:50:00,60.3,54.0,30.33,SSW,202,3.0,3.0,83,0.00,,,0.00,Rainwise IP-100,2013-07-17 22:50:00,
2013-07-17 15:55:00,60.6,54.0,30.32,WSW,247,8.0,8.0,82,0.00,,,0.00,Rainwise IP-100,2013-07-17 22:55:00,
2013-07-17 16:00:00,60.6,54.0,30.32,NNE,22,3.0,3.0,82,0.00,,,0.00,Rainwise IP-100,2013-07-17 23:00:00,
2013-07-17 16:05:00,60.6,54.0,30.32,WNW,292,8.0,8.0,82,0.00,,,0.00,Rainwise IP-100,2013-07-17 23:05:00,
2013-07-17 16:10:00,60.4,54.0,30.32,WNW,292,2.0,4.0,82,0.00,,,0.00,Rainwise IP-100,2013-07-17 23:10:00,
2013-07-17 16:15:00,60.1,54.0,30.32,SW,225,4.0,5.0,82,0.00,,,0.00,Rainwise IP-100,2013-07-17 23:15:00,
2013-07-17 16:20:00,59.8,54.0,30.33,WSW,247,2.0,5.0,83,0.00,,,0.00,Rainwise IP-100,2013-07-17 23:20:00,
2013-07-17 16:25:00,59.6,54.0,30.32,WSW,247,8.0,8.0,84,0.00,,,0.00,Rainwise IP-100,2013-07-17 23:25:00,
2013-07-17 16:30:00,59.3,54.0,30.32,WSW,247,8.0,8.0,84,0.00,,,0.00,Rainwise IP-100,2013-07-17 23:30:00,
2013-07-17 16:35:00,59.2,54.0,30.31,WNW,292,5.0,5.0,84,0.00,,,0.00,Rainwise IP-100,2013-07-17 23:35:00,
2013-07-17 16:40:00,59.1,54.0,30.32,South,180,8.0,8.0,84,0.00,,,0.00,Rainwise IP-100,2013-07-17 23:40:00,
2013-07-17 16:45:00,58.7,54.0,30.32,SW,225,7.0,7.0,85,0.00,,,0.00,Rainwise IP-100,2013-07-17 23:45:00,
2013-07-17 16:50:00,58.6,54.0,30.31,South,180,3.0,4.0,85,0.00,,,0.00,Rainwise IP-100,2013-07-17 23:50:00,
2013-07-17 16:55:00,58.2,54.0,30.32,West,270,9.0,9.0,86,0.00,,,0.00,Rainwise IP-100,2013-07-17 23:55:00,
2013-07-17 17:00:00,57.9,54.0,30.31,SSW,202,1.0,7.0,87,0.00,,,0.00,Rainwise IP-100,2013-07-18 00:00:00,
2013-07-17 17:05:00,57.6,54.0,30.31,WSW,247,4.0,6.0,88,0.00,,,0.00,Rainwise IP-100,2013-07-18 00:05:00,
2013-07-17 17:10:00,57.4,54.0,30.31,NNE,22,2.0,4.0,88,0.00,,,0.00,Rainwise IP-100,2013-07-18 00:10:00,
2013-07-17 17:15:00,57.3,54.0,30.31,WNW,292,0.0,4.0,89,0.00,,,0.00,Rainwise IP-100,2013-07-18 00:15:00,
2013-07-17 17:20:00,57.1,54.0,30.31,NW,315,3.0,5.0,89,0.00,,,0.00,Rainwise IP-100,2013-07-18 00:20:00,
2013-07-17 17:25:00,57.0,54.0,30.31,SSE,157,0.0,3.0,89,0.00,,,0.00,Rainwise IP-100,2013-07-18 00:25:00,
2013-07-17 17:30:00,56.7,53.0,30.31,WNW,292,4.0,7.0,90,0.00,,,0.00,Rainwise IP-100,2013-07-18 00:30:00,
2013-07-17 17:35:00,56.4,53.0,30.31,WSW,247,5.0,5.0,90,0.00,,,0.00,Rainwise IP-100,2013-07-18 00:35:00,
2013-07-17 17:40:00,56.3,53.0,30.31,SW,225,0.0,8.0,91,0.00,,,0.00,Rainwise IP-100,2013-07-18 00:40:00,
2013-07-17 17:45:00,56.2,53.0,30.31,WNW,292,7.0,7.0,91,0.00,,,0.00,Rainwise IP-100,2013-07-18 00:45:00,
2013-07-17 17:50:00,56.1,53.0,30.30,WSW,247,0.0,8.0,91,0.00,,,0.00,Rainwise IP-100,2013-07-18 00:50:00,
2013-07-17 17:55:00,55.7,53.0,30.30,SSW,202,6.0,7.0,92,0.00,,,0.00,Rainwise IP-100,2013-07-18 00:55:00,
2013-07-17 18:00:00,55.5,53.0,30.30,NNW,337,2.0,2.0,92,0.00,,,0.00,Rainwise IP-100,2013-07-18 01:00:00,
2013-07-17 18:05:00,55.6,54.0,30.30,NNW,337,4.0,4.0,93,0.00,,,0.00,Rainwise IP-100,2013-07-18 01:05:00,
2013-07-17 18:10:00,55.6,54.0,30.30,WSW,247,8.0,8.0,93,0.00,,,0.00,Rainwise IP-100,2013-07-18 01:10:00,
2013-07-17 18:15:00,55.4,53.0,30.30,SW,225,8.0,8.0,93,0.00,,,0.00,Rainwise IP-100,2013-07-18 01:15:00,
2013-07-17 18:20:00,55.2,53.0,30.30,WSW,247,0.0,7.0,93,0.00,,,0.00,Rainwise IP-100,2013-07-18 01:20:00,
2013-07-17 18:25:00,55.1,53.0,30.30,SSE,157,2.0,8.0,94,0.00,,,0.00,Rainwise IP-100,2013-07-18 01:25:00,
2013-07-17 18:30:00,55.0,53.0,30.30,SW,225,8.0,8.0,94,0.00,,,0.00,Rainwise IP-100,2013-07-18 01:30:00,
2013-07-17 18:35:00,55.1,54.0,30.30,WNW,292,4.0,4.0,95,0.00,,,0.00,Rainwise IP-100,2013-07-18 01:35:00,
2013-07-17 18:40:00,55.1,54.0,30.30,WNW,292,2.0,7.0,95,0.00,,,0.00,Rainwise IP-100,2013-07-18 01:40:00,
2013-07-17 18:45:00,55.0,54.0,30.30,North,360,2.0,6.0,95,0.00,,,0.00,Rainwise IP-100,2013-07-18 01:45:00,
2013-07-17 18:50:00,54.9,54.0,30.30,WSW,247,6.0,7.0,95,0.00,,,0.00,Rainwise IP-100,2013-07-18 01:50:00,
2013-07-17 18:55:00,55.0,54.0,30.30,SSW,202,4.0,4.0,95,0.00,,,0.00,Rainwise IP-100,2013-07-18 01:55:00,
2013-07-17 19:00:00,55.1,54.0,30.30,SSE,157,0.0,1.0,95,0.00,,,0.00,Rainwise IP-100,2013-07-18 02:00:00,
2013-07-17 19:05:00,55.2,54.0,30.30,WNW,292,4.0,7.0,95,0.00,,,0.00,Rainwise IP-100,2013-07-18 02:05:00,
2013-07-17 19:10:00,55.2,54.0,30.30,SW,225,0.0,3.0,95,0.00,,,0.00,Rainwise IP-100,2013-07-18 02:10:00,
2013-07-17 19:15:00,55.0,54.0,30.30,SSW,202,2.0,4.0,95,0.00,,,0.00,Rainwise IP-100,2013-07-18 02:15:00,
2013-07-17 19:20:00,54.9,54.0,30.30,SW,225,0.0,4.0,95,0.00,,,0.00,Rainwise IP-100,2013-07-18 02:20:00,
2013-07-17 19:25:00,55.0,54.0,30.30,WNW,292,4.0,4.0,95,0.00,,,0.00,Rainwise IP-100,2013-07-18 02:25:00,
2013-07-17 19:30:00,54.8,53.0,30.31,SSE,157,5.0,5.0,95,0.00,,,0.00,Rainwise IP-100,2013-07-18 02:30:00,
2013-07-17 19:35:00,54.6,53.0,30.30,WSW,247,2.0,2.0,95,0.00,,,0.00,Rainwise IP-100,2013-07-18 02:35:00,
2013-07-17 19:40:00,54.5,53.0,30.30,NW,315,3.0,0.0,96,0.00,,,0.00,Rainwise IP-100,2013-07-18 02:40:00,
2013-07-17 19:45:00,54.7,53.0,30.30,SSE,157,4.0,9.0,96,0.00,,,0.00,Rainwise IP-100,2013-07-18 02:45:00,
2013-07-17 19:50:00,54.7,53.0,30.30,SSW,202,5.0,5.0,96,0.00,,,0.00,Rainwise IP-100,2013-07-18 02:50:00,
2013-07-17 19:55:00,54.5,53.0,30.31,SW,225,0.0,1.0,96,0.00,,,0.00,Rainwise IP-100,2013-07-18 02:55:00,
2013-07-17 20:00:00,54.5,53.0,30.30,SW,225,0.0,8.0,96,0.00,,,0.00,Rainwise IP-100,2013-07-18 03:00:00,
2013-07-17 20:05:00,54.4,53.0,30.31,SSW,202,7.0,7.0,96,0.00,,,0.00,Rainwise IP-100,2013-07-18 03:05:00,
2013-07-17 20:10:00,54.2,53.0,30.31,West,270,4.0,4.0,96,0.00,,,0.00,Rainwise IP-100,2013-07-18 03:10:00,
2013-07-17 20:15:00,54.3,53.0,30.31,WSW,247,1.0,0.0,96,0.00,,,0.00,Rainwise IP-100,2013-07-18 03:15:00,
2013-07-17 20:20:00,54.4,54.0,30.30,SSW,202,4.0,4.0,97,0.00,,,0.00,Rainwise IP-100,2013-07-18 03:20:00,
2013-07-17 20:25:00,54.4,54.0,30.30,ESE,112,1.0,2.0,97,0.00,,,0.00,Rainwise IP-100,2013-07-18 03:25:00,
2013-07-17 20:30:00,54.2,53.0,30.30,WNW,292,4.0,4.0,97,0.00,,,0.00,Rainwise IP-100,2013-07-18 03:30:00,
2013-07-17 20:35:00,53.9,53.0,30.30,West,270,4.0,4.0,97,0.00,,,0.00,Rainwise IP-100,2013-07-18 03:35:00,
2013-07-17 20:40:00,53.6,53.0,30.30,WNW,292,7.0,0.0,97,0.00,,,0.00,Rainwise IP-100,2013-07-18 03:40:00,
2013-07-17 20:45:00,53.6,53.0,30.30,SSW,202,5.0,5.0,97,0.00,,,0.00,Rainwise IP-100,2013-07-18 03:45:00,
2013-07-17 20:50:00,53.7,53.0,30.30,SSW,202,0.0,2.0,98,0.00,,,0.00,Rainwise IP-100,2013-07-18 03:50:00,
2013-07-17 20:55:00,53.8,53.0,30.30,WSW,247,2.0,4.0,98,0.00,,,0.00,Rainwise IP-100,2013-07-18 03:55:00,
2013-07-17 21:00:00,53.8,53.0,30.30,SSW,202,5.0,6.0,98,0.00,,,0.00,Rainwise IP-100,2013-07-18 04:00:00,
2013-07-17 21:01:00,53.9,53.0,30.30,WSW,247,6.0,6.0,98,0.00,,,0.00,Rainwise IP-100,2013-07-18 04:01:00,
2013-07-17 21:06:00,53.7,53.0,30.30,West,270,7.0,7.0,98,0.00,,,0.00,Rainwise IP-100,2013-07-18 04:06:00,
2013-07-17 21:11:00,53.5,53.0,30.30,NNW,337,7.0,7.0,98,0.00,,,0.00,Rainwise IP-100,2013-07-18 04:11:00,
2013-07-17 21:16:00,53.4,53.0,30.30,SSW,202,5.0,0.0,98,0.00,,,0.00,Rainwise IP-100,2013-07-18 04:16:00,
2013-07-17 21:21:00,53.4,53.0,30.30,WSW,247,3.0,3.0,98,0.00,,,0.00,Rainwise IP-100,2013-07-18 04:21:00,
2013-07-17 21:26:00,53.4,53.0,30.31,SW,225,0.0,2.0,98,0.00,,,0.00,Rainwise IP-100,2013-07-18 04:26:00,
2013-07-17 21:31:00,53.2,52.0,30.30,SW,225,2.0,6.0,98,0.00,,,0.00,Rainwise IP-100,2013-07-18 04:31:00,
2013-07-17 21:36:00,53.2,52.0,30.31,WSW,247,6.0,9.0,98,0.00,,,0.00,Rainwise IP-100,2013-07-18 04:36:00,
2013-07-17 21:41:00,53.3,53.0,30.30,SW,225,0.0,0.0,99,0.00,,,0.00,Rainwise IP-100,2013-07-18 04:41:00,
2013-07-17 21:46:00,53.4,53.0,30.30,SSE,157,8.0,8.0,99,0.00,,,0.00,Rainwise IP-100,2013-07-18 04:46:00,
2013-07-17 21:51:00,53.4,53.0,30.31,SW,225,5.0,8.0,99,0.00,,,0.00,Rainwise IP-100,2013-07-18 04:51:00,
2013-07-17 21:56:00,53.4,53.0,30.31,SW,225,3.0,5.0,99,0.00,,,0.00,Rainwise IP-100,2013-07-18 04:56:00,
2013-07-17 22:01:00,53.3,53.0,30.31,WSW,247,3.0,9.0,99,0.00,,,0.00,Rainwise IP-100,2013-07-18 05:01:00,
2013-07-17 22:06:00,53.3,53.0,30.31,SW,225,5.0,5.0,99,0.00,,,0.00,Rainwise IP-100,2013-07-18 05:06:00,
2013-07-17 22:11:00,53.3,53.0,30.31,SSW,202,5.0,6.0,99,0.00,,,0.00,Rainwise IP-100,2013-07-18 05:11:00,
2013-07-17 22:16:00,53.4,53.0,30.32,SW,225,4.0,4.0,99,0.00,,,0.00,Rainwise IP-100,2013-07-18 05:16:00,
2013-07-17 22:21:00,53.4,53.0,30.32,WSW,247,4.0,4.0,99,0.00,,,0.00,Rainwise IP-100,2013-07-18 05:21:00,
2013-07-17 22:26:00,53.4,53.0,30.32,WNW,292,2.0,2.0,100,0.00,,,0.00,Rainwise IP-100,2013-07-18 05:26:00,
2013-07-17 22:31:00,53.4,53.0,30.32,SW,225,2.0,2.0,100,0.00,,,0.00,Rainwise IP-100,2013-07-18 05:31:00,
2013-07-17 22:36:00,53.4,53.0,30.31,West,270,4.0,4.0,100,0.00,,,0.00,Rainwise IP-100,2013-07-18 05:36:00,
2013-07-17 22:41:00,53.4,53.0,30.32,WSW,247,4.0,4.0,100,0.00,,,0.00,Rainwise IP-100,2013-07-18 05:41:00,
2013-07-17 22:46:00,53.4,53.0,30.32,SW,225,0.0,8.0,100,0.00,,,0.00,Rainwise IP-100,2013-07-18 05:46:00,
2013-07-17 22:51:00,53.4,53.0,30.32,NW,315,2.0,2.0,100,0.00,,,0.00,Rainwise IP-100,2013-07-18 05:51:00,
2013-07-17 22:56:00,53.5,53.0,30.32,SE,135,4.0,4.0,100,0.00,,,0.00,Rainwise IP-100,2013-07-18 05:56:00,
2013-07-17 23:01:00,53.5,53.0,30.32,WSW,247,4.0,4.0,100,0.00,,,0.00,Rainwise IP-100,2013-07-18 06:01:00,
2013-07-17 23:06:00,53.4,53.0,30.32,WSW,247,4.0,5.0,100,0.00,,,0.00,Rainwise IP-100,2013-07-18 06:06:00,
2013-07-17 23:10:00,53.3,53.0,30.31,WNW,292,4.0,5.0,100,0.00,,,0.00,Rainwise IP-100,2013-07-18 06:10:00,
2013-07-17 23:15:00,53.4,53.0,30.31,ESE,112,2.0,8.0,100,0.00,,,0.00,Rainwise IP-100,2013-07-18 06:15:00,
2013-07-17 23:20:00,53.5,53.0,30.31,SSE,157,3.0,3.0,100,0.00,,,0.00,Rainwise IP-100,2013-07-18 06:20:00,
2013-07-17 23:25:00,53.5,53.0,30.32,SW,225,4.0,4.0,100,0.00,,,0.00,Rainwise IP-100,2013-07-18 06:25:00,
2013-07-17 23:30:00,53.3,53.0,30.31,West,270,3.0,6.0,100,0.00,,,0.00,Rainwise IP-100,2013-07-18 06:30:00,
2013-07-17 23:35:00,53.3,53.0,30.31,SW,225,7.0,7.0,100,0.00,,,0.00,Rainwise IP-100,2013-07-18 06:35:00,
2013-07-17 23:40:00,53.2,53.0,30.31,WNW,292,0.0,2.0,100,0.00,,,0.00,Rainwise IP-100,2013-07-18 06:40:00,
2013-07-17 23:45:00,53.2,53.0,30.31,WSW,247,4.0,9.0,100,0.00,,,0.00,Rainwise IP-100,2013-07-18 06:45:00,
2013-07-17 23:50:00,53.2,53.0,30.31,WSW,247,4.0,4.0,100,0.00,,,0.00,Rainwise IP-100,2013-07-18 06:50:00,
2013-07-17 23:55:00,53.2,53.0,30.31,WSW,247,7.0,7.0,100,0.00,,,0.00,Rainwise IP-100,2013-07-18 06:55:00,